SCP
0 0 0 0 0 0 0 0 0 0 0 0 0 0 0 0 0 0 0 0 0 0 0 0 0 0 0 0 0 0 0 0 0 0 0 0 0 0 0 0 0 0 0 0 0 0 0 0 0
0 0 0 0 0 0 0 0 0 0 0 0 0 0 0 0 0 0 0 0 0 0 0 0 0 0 0 0 0 0 0 0 0 0 0 0 0 0 0 0 0 0 0 0 0 0 0 0 0
0 0 0 0 0 0 0 0 0 0 0 0 0 0 0 0 0 0 0 0 0 0 0 0 0 0 0 0 0 0 0 0 0 0 0 0 0 0 0 0 0 0 0 0 0 0 0 0 0
0 0 0 0 0 0 0 0 0 0 0 0 0 0 0 0 0 0 0 0 0 0 0 1 1 0 0 0 0 0 0 0 0 0 0 0 0 0 0 0 0 0 0 0 0 0 0 0 0
0 0 0 0 0 0 0 0 0 0 0 0 0 0 0 0 0 0 0 0 0 0 0 1 1 1 0 0 0 0 1 1 1 0 0 0 0 0 0 0 0 0 0 0 0 0 0 0 0
0 0 0 0 0 0 0 0 0 0 0 0 0 0 0 0 0 0 0 0 0 0 0 1 1 1 1 1 1 1 1 1 1 1 1 0 0 0 0 0 0 0 0 0 0 0 0 0 0
0 0 0 0 0 0 0 0 0 0 0 0 0 0 0 0 1 1 1 0 0 0 1 1 1 1 1 1 1 1 1 1 1 1 0 0 0 0 0 0 0 0 0 0 0 0 0 0 0
0 0 0 0 0 0 0 0 0 0 0 0 0 0 0 1 1 1 1 1 1 1 1 1 1 1 1 1 1 1 1 1 1 0 0 0 0 0 0 0 0 0 0 0 0 0 0 0 0
0 0 0 0 0 0 0 0 0 0 0 0 0 0 0 1 1 1 1 1 1 1 1 1 1 1 1 1 1 1 1 1 0 0 0 0 0 0 0 0 0 0 0 0 0 0 0 0 0
0 0 0 0 0 0 0 0 0 0 0 0 0 0 1 1 1 1 1 1 1 1 1 1 1 1 1 1 1 1 1 0 0 0 0 0 0 0 0 0 0 0 0 0 0 0 0 0 0
0 0 0 0 0 0 0 0 0 0 0 0 0 0 1 1 1 1 1 1 1 1 1 1 1 1 1 1 1 1 1 1 0 0 0 0 0 0 0 0 0 0 0 0 0 0 0 0 0
0 0 0 0 0 0 0 0 0 0 0 0 0 1 1 1 1 1 1 1 1 1 1 1 1 1 1 1 1 1 1 1 1 1 1 1 1 1 0 0 0 0 0 0 0 0 0 0 0
0 0 0 0 0 0 0 0 0 0 0 0 0 1 1 1 1 1 1 1 1 1 1 1 1 1 1 1 1 1 1 1 1 1 1 1 1 1 1 1 1 1 0 0 1 0 0 0 0
0 0 0 0 0 0 0 0 0 0 0 0 0 0 1 1 1 1 1 1 1 1 1 1 1 1 1 1 1 1 1 1 1 1 1 1 1 1 1 1 1 1 1 1 1 1 1 1 1
0 0 0 0 0 0 0 0 0 0 0 0 0 0 1 1 1 1 1 1 1 1 1 1 1 1 1 1 1 1 1 1 1 1 1 1 1 1 1 1 1 1 1 1 1 1 1 1 1
0 0 0 0 0 0 0 0 0 0 0 0 0 0 1 1 1 1 1 1 1 1 1 1 1 1 1 1 1 1 1 1 1 1 1 1 1 1 1 1 1 1 1 1 1 1 1 1 1
0 0 0 0 0 0 0 0 0 0 0 0 0 0 0 1 1 1 1 1 1 1 1 1 1 1 1 1 1 1 1 1 1 1 1 1 1 1 1 1 1 1 1 1 1 1 1 1 1
0 0 0 0 0 0 0 0 0 0 0 0 0 0 0 0 1 1 1 1 1 1 1 1 1 1 1 1 1 1 1 1 0 0 0 1 1 1 1 1 1 1 1 1 1 1 1 1 1
0 0 0 0 0 0 0 0 0 0 0 0 0 0 0 1 1 1 1 1 1 1 1 1 1 1 1 1 1 1 1 0 0 0 0 0 0 1 1 1 1 1 1 1 0 0 0 0 1
0 0 0 0 0 0 0 0 0 0 0 0 0 0 0 1 1 1 1 1 1 1 1 1 1 1 1 1 1 1 1 0 0 0 0 0 0 0 0 0 0 0 0 0 0 0 0 0 0
0 0 0 0 0 0 0 0 0 0 0 0 0 0 0 1 1 1 1 1 1 1 1 1 1 1 1 1 1 1 1 1 0 0 0 0 0 0 0 0 0 0 0 0 0 0 0 0 0
0 0 0 0 0 0 0 0 0 0 0 0 0 0 0 1 1 1 1 1 1 1 1 1 1 1 1 1 1 1 1 1 1 1 0 0 0 0 0 0 0 0 0 0 0 0 0 0 0
0 0 0 0 0 0 0 0 0 0 0 0 0 0 0 0 0 1 1 1 1 1 1 1 1 1 1 1 1 1 1 1 1 1 1 0 0 0 0 0 0 0 0 0 0 0 0 0 0
0 0 0 0 0 0 0 0 0 0 0 0 0 0 0 0 0 0 1 1 1 1 1 1 1 1 1 1 1 1 1 1 1 1 0 0 0 0 0 0 0 0 0 0 0 0 0 0 0
0 0 0 0 0 0 0 0 0 0 0 0 0 0 0 0 0 0 1 1 1 1 1 1 1 1 1 1 1 1 1 1 0 0 0 0 0 0 0 0 0 0 0 0 0 0 0 0 0
0 0 0 0 0 0 0 0 0 0 0 0 0 0 0 0 0 0 0 1 1 0 0 0 0 0 0 0 1 1 0 0 0 0 0 0 0 0 0 0 0 0 0 0 0 0 0 0 0
0 0 0 0 0 0 0 0 0 0 0 0 0 0 0 0 0 0 0 0 0 0 0 0 0 0 0 0 0 0 0 0 0 0 0 0 0 0 0 0 0 0 0 0 0 0 0 0 0
0 0 0 0 0 0 0 0 0 0 0 0 0 0 0 0 0 0 0 0 0 0 0 0 0 0 0 0 0 0 0 0 0 0 0 0 0 0 0 0 0 0 0 0 0 0 0 0 0
0 0 0 0 0 0 0 0 0 0 0 0 0 0 0 0 0 0 0 0 0 0 0 0 0 0 0 0 0 0 0 0 0 0 0 0 0 0 0 0 0 0 0 0 0 0 0 0 0
0 0 0 0 0 0 0 0 0 0 0 0 0 0 0 0 0 0 0 0 0 0 0 0 0 0 0 0 0 0 0 0 0 0 0 0 0 0 0 0 0 0 0 0 0 0 0 0 0
Wind_Speed
8 7 7 6 8 6 3 2 1 3 3 3 2 0 2 3 4 5 7 12 14 15 17 17 13 13 12 12 11 11 11 11 11 11 11 11 11 10 9 8 8 7 6 5 5 4 4 3 3
5 6 7 7 7 5 4 3 3 2 4 3 3 1 1 3 5 7 9 13 15 15 16 15 15 13 12 12 12 11 11 11 11 10 11 10 10 9 9 8 7 6 5 5 4 4 3 3 3
6 7 7 6 6 4 3 3 3 4 4 4 3 2 2 4 5 6 10 14 15 15 14 15 15 13 12 12 12 12 11 11 10 10 10 10 9 9 8 7 6 6 5 4 4 4 3 3 3
6 7 7 7 5 1 0 2 2 4 5 3 3 4 4 5 3 7 13 15 15 14 15 16 14 13 12 12 11 11 11 10 10 9 9 8 8 7 7 6 6 5 5 4 4 3 3 3 3
7 6 8 7 5 2 1 1 4 4 4 4 3 3 5 5 6 11 13 14 13 13 13 16 13 13 12 12 11 10 10 9 8 8 8 7 6 6 5 5 5 4 4 4 4 3 3 3 4
6 6 7 7 5 3 3 4 5 5 3 4 4 4 6 6 9 11 13 12 12 12 12 15 15 13 12 11 11 10 9 8 7 7 6 6 5 5 4 4 4 4 4 4 4 4 4 4 5
7 6 6 5 4 5 3 3 6 4 4 4 3 3 7 8 9 11 12 11 11 11 11 12 14 13 12 10 10 9 8 7 7 6 5 5 5 4 4 4 4 4 4 4 5 5 5 5 5
6 6 6 5 5 3 4 3 3 4 2 4 3 3 6 10 11 11 10 10 11 10 10 10 11 11 11 11 11 9 8 7 6 6 5 5 5 6 5 5 4 3 4 4 5 5 5 6 6
7 8 5 4 3 2 3 4 3 2 3 3 2 1 6 14 14 12 11 10 10 9 9 9 9 9 8 8 10 10 9 8 7 7 7 6 6 6 6 4 3 3 4 5 5 6 6 7 8
7 6 2 1 3 1 1 3 3 5 6 5 5 6 10 14 14 14 13 12 12 11 10 9 9 9 8 6 7 6 6 7 6 4 5 5 4 3 3 4 3 4 5 6 6 6 7 9 6
5 4 1 1 2 3 2 2 3 5 4 3 5 8 12 13 13 12 12 11 10 10 9 8 8 7 6 5 4 3 3 3 4 4 4 3 3 3 3 2 4 5 7 6 5 7 6 6 5
4 2 3 2 1 3 3 2 2 3 2 1 3 8 11 13 12 11 10 9 9 8 8 8 8 7 6 4 3 3 3 2 2 3 4 3 2 2 2 2 3 3 3 4 4 4 5 6 6
5 2 1 2 2 2 2 2 1 0 1 2 5 8 10 11 10 8 8 8 8 7 7 7 7 7 5 4 3 3 2 2 2 2 2 3 3 3 3 3 3 4 4 4 5 5 6 6 7
1 1 2 1 1 2 2 2 1 0 2 4 6 7 7 7 8 7 7 7 7 7 6 6 7 7 6 4 3 2 2 2 2 1 2 3 3 3 3 3 3 4 4 5 5 6 5 5 5
4 4 4 2 2 2 3 3 2 1 3 4 5 5 6 6 6 7 6 6 6 6 6 6 7 7 6 5 4 3 2 2 1 1 2 2 3 3 4 3 3 4 4 5 5 6 5 5 6
7 7 4 4 1 1 6 2 4 2 3 3 3 4 5 5 5 5 5 5 4 5 5 6 5 6 6 5 4 2 1 1 1 1 1 2 3 3 4 3 3 4 4 4 4 5 5 5 5
6 4 1 3 2 1 4 1 2 2 3 3 3 4 4 4 4 3 3 3 4 4 5 5 5 5 5 5 3 2 1 1 1 0 1 1 2 3 3 3 3 4 4 4 5 4 5 5 5
1 2 2 1 2 2 3 1 1 3 3 3 3 3 4 4 4 4 3 3 2 3 4 4 5 5 5 4 3 2 2 1 1 0 1 2 2 3 4 3 3 4 4 4 4 5 5 5 6
2 3 2 1 1 3 3 3 2 2 3 4 4 3 3 3 3 4 4 4 3 3 4 4 4 5 4 3 3 3 2 2 1 1 1 2 3 3 3 4 3 4 4 5 6 5 6 6 5
4 4 2 1 1 3 3 5 3 3 3 3 3 3 3 3 3 4 4 4 4 4 4 4 4 4 4 3 2 1 1 1 1 0 0 1 2 3 3 3 4 4 4 5 5 5 5 5 4
3 4 3 3 2 5 6 6 5 4 4 4 4 3 3 3 3 4 4 4 4 4 3 3 3 3 3 4 3 3 2 2 1 0 0 1 2 2 3 4 4 4 5 4 5 5 5 5 4
4 2 3 4 6 4 5 6 4 4 5 4 4 3 2 2 4 4 4 4 4 4 4 3 3 3 3 3 3 3 2 0 1 1 1 1 1 2 2 3 3 4 4 4 5 4 4 5 4
4 3 5 6 7 6 6 7 2 5 4 3 3 3 3 2 3 4 4 5 4 4 4 4 3 3 3 2 2 2 1 0 0 1 1 1 1 2 2 3 3 4 4 4 5 4 4 4 4
1 4 6 8 8 7 3 7 3 2 2 2 1 1 2 3 3 4 5 6 5 5 4 4 4 3 3 2 2 1 1 0 1 1 1 1 1 1 3 3 4 4 4 4 4 4 4 4 5
3 5 5 6 6 3 0 6 2 3 2 2 1 1 2 3 3 4 5 6 6 6 5 5 4 3 3 3 2 1 1 1 1 1 1 2 2 2 3 4 4 4 4 4 4 4 4 4 4
4 7 6 7 6 5 3 5 2 3 2 1 1 2 3 2 2 3 4 5 5 5 5 5 4 3 3 3 2 2 1 0 1 2 2 1 2 2 3 4 4 4 5 5 4 4 4 3 4
5 5 6 9 9 8 4 3 1 2 2 2 2 2 2 2 2 3 4 5 5 5 5 4 4 3 2 2 3 2 2 1 1 0 1 1 2 2 3 4 4 4 5 5 5 3 4 4 4
5 6 5 7 7 8 6 5 3 3 3 2 1 0 1 2 2 3 3 4 5 5 5 4 4 3 2 2 2 2 2 1 1 0 1 2 2 2 3 3 4 4 4 4 5 4 4 4 4
4 4 6 7 7 8 7 4 6 5 4 3 1 0 1 2 2 3 3 4 5 5 5 5 4 3 2 2 2 2 2 1 1 0 1 1 2 3 3 3 3 3 4 4 4 5 4 4 4
4 5 6 7 7 8 9 3 6 4 4 3 2 0 1 1 2 3 4 4 4 4 4 4 3 3 2 2 3 2 1 1 0 0 1 1 2 3 3 4 4 4 4 4 4 4 4 4 5
Wind_Direction
209 204 217 229 234 224 201 139 119 117 112 92 101 60 13 10 358 58 105 143 145 144 140 148 149 150 148 147 145 143 142 142 146 150 152 153 155 156 158 160 160 162 164 165 165 164 165 165 169
206 203 223 236 247 213 170 150 146 103 88 114 126 132 92 65 53 95 133 143 148 145 145 150 147 152 151 150 147 145 144 144 145 148 151 153 155 156 159 162 164 167 170 173 174 174 176 180 191
206 228 246 238 240 239 156 127 113 112 133 163 139 86 38 63 97 123 135 148 150 147 146 138 149 153 153 152 151 149 147 147 147 148 152 154 156 158 161 165 169 173 177 183 185 185 189 195 204
213 216 233 239 220 234 250 123 129 154 152 163 154 116 90 60 93 126 140 153 153 151 147 140 154 153 153 153 153 153 151 150 150 151 153 155 158 160 163 170 176 182 188 192 197 198 200 207 215
233 237 222 215 213 188 199 201 201 197 163 155 168 119 101 91 107 130 147 156 154 150 146 141 153 154 155 155 154 153 152 151 154 155 156 157 159 163 171 180 189 194 200 205 207 212 215 221 229
219 233 225 208 187 185 194 206 213 214 173 155 163 134 99 116 130 141 149 157 153 150 148 141 152 156 157 157 155 153 152 152 155 157 157 160 164 171 179 188 201 208 216 219 217 222 228 233 235
243 234 235 220 190 186 170 192 212 207 187 166 152 139 120 135 137 144 149 155 152 154 151 152 158 159 160 157 156 156 153 152 152 156 160 167 175 182 188 198 214 222 231 231 229 232 236 240 241
262 246 217 212 210 170 142 180 199 221 159 119 170 173 140 145 144 144 150 154 156 157 158 161 164 163 167 164 160 159 154 155 159 162 169 178 188 195 199 208 198 223 237 239 240 240 242 245 245
245 240 209 201 219 146 148 185 166 195 172 166 171 113 115 140 148 151 155 160 161 161 163 168 168 166 173 168 155 165 166 167 176 178 182 203 211 204 196 203 176 225 244 248 250 251 250 250 236
234 234 200 1 313 311 203 208 181 192 188 174 155 134 136 151 160 165 168 169 170 170 173 173 174 171 175 168 161 179 183 175 194 192 194 210 218 236 246 140 185 229 243 244 244 252 248 248 245
233 258 351 319 321 291 252 228 218 225 214 194 176 159 158 163 169 175 175 174 173 170 175 177 174 175 175 170 174 180 191 183 195 201 213 223 232 230 246 227 201 221 232 244 228 236 247 253 260
227 263 292 295 301 266 261 244 229 236 305 55 168 160 164 170 176 180 178 175 170 174 176 177 174 173 179 179 177 188 193 193 205 194 226 231 238 249 254 257 265 253 245 255 263 261 263 266 265
220 237 270 266 252 275 249 224 245 293 30 132 145 157 169 175 178 179 177 175 173 175 177 177 179 173 173 179 203 197 205 212 205 222 218 244 247 253 258 260 272 277 278 262 260 263 264 262 258
173 209 208 192 195 188 189 167 217 179 130 140 147 159 167 174 176 173 177 182 180 179 180 176 179 174 174 179 188 204 214 204 238 227 231 248 263 269 271 266 269 278 280 283 278 275 269 265 264
198 203 186 168 203 170 212 176 163 138 143 146 152 162 166 171 173 179 184 187 185 182 178 179 180 175 174 182 192 201 215 213 230 235 238 250 264 266 265 270 271 282 280 278 276 279 274 263 260
205 216 195 133 195 197 247 207 99 127 159 165 166 168 168 172 181 178 180 185 184 183 180 183 183 172 173 177 180 185 202 214 230 247 249 262 278 275 271 276 282 290 287 286 283 281 281 276 274
204 217 203 140 147 224 250 285 91 155 190 188 182 168 167 169 175 163 166 175 181 181 181 178 177 172 169 168 163 155 164 196 242 285 322 306 285 280 275 278 289 286 287 291 290 290 288 285 280
211 241 222 217 134 229 246 254 181 189 210 195 173 167 172 174 169 151 148 147 159 166 168 169 170 169 166 163 159 156 157 172 169 106 359 309 297 299 293 283 290 288 290 291 291 289 283 282 284
257 255 250 283 111 243 252 256 249 201 199 200 191 182 182 171 144 134 136 134 130 135 144 148 163 163 167 164 176 172 175 174 159 151 34 313 313 320 303 305 304 298 299 296 296 293 286 281 285
237 252 257 200 168 260 253 262 246 207 217 224 216 199 196 175 145 133 128 129 137 152 157 155 164 162 172 162 170 178 182 175 120 28 34 323 330 322 310 326 311 311 303 295 296 294 287 285 282
245 269 284 279 250 229 242 239 207 206 204 209 215 210 199 185 169 154 144 144 149 155 158 154 153 154 157 161 167 162 167 182 164 201 53 1 344 344 349 333 325 321 307 307 295 285 286 287 286
273 300 267 245 250 249 248 271 206 203 204 206 206 197 196 182 169 159 158 155 160 160 148 136 142 140 153 173 171 171 181 162 355 327 37 9 360 356 355 338 336 324 320 316 299 310 297 288 287
323 305 255 250 257 257 243 268 232 196 223 223 201 194 185 180 168 167 167 159 157 152 142 138 141 146 155 172 174 190 180 124 49 31 59 351 20 5 3 338 327 320 319 325 316 308 299 296 294
270 249 234 233 242 248 260 277 270 224 280 290 168 164 167 176 172 168 162 154 151 143 139 139 133 137 150 156 159 167 121 58 30 12 31 4 30 12 11 347 336 324 331 324 318 313 306 304 301
264 277 255 243 239 264 358 271 306 22 5 329 354 124 141 152 163 164 163 159 154 148 145 142 135 133 148 145 136 128 121 137 119 4 35 352 356 5 7 349 335 332 328 319 318 310 312 309 306
278 283 296 292 295 298 252 265 11 39 42 47 68 103 117 128 147 163 164 159 154 151 154 149 144 137 139 139 124 107 104 63 61 29 349 349 347 1 355 337 332 329 324 321 319 305 310 308 305
275 285 317 288 282 279 271 275 201 121 67 59 67 119 137 138 155 154 152 153 154 159 161 150 143 140 128 129 121 116 101 61 49 20 279 17 7 348 343 330 330 330 328 324 315 324 321 320 309
299 306 278 282 293 288 283 281 339 34 21 18 22 105 142 129 121 130 136 143 150 155 151 146 146 137 123 141 134 121 112 112 129 302 25 10 358 345 325 330 330 330 334 334 327 328 340 330 329
275 260 283 289 296 296 296 329 44 34 12 351 328 240 149 142 130 134 134 142 148 146 149 148 145 138 128 142 135 124 115 123 140 88 17 358 342 326 322 326 326 329 333 336 333 334 337 334 334
288 302 300 295 296 287 291 321 64 33 9 356 346 353 133 136 140 147 143 142 144 146 147 145 149 147 136 147 150 147 154 169 242 30 357 336 322 312 323 322 323 325 334 336 331 330 338 330 329